Vertical_Velocity
7 8 6 -2 -4 -3 -1 -4 -0 1 -3 -4 -2 0 -1 -0 1 -1 -5 2 -1 2 -0 -3 -1 17 5 3 -2 -7 -5 -2 4 -2 3 -0 0 -1 -0 1 0 -1 1
-14 -14 -10 -4 -0 -1 3 -2 -7 -6 -3 -5 -5 -1 -2 -1 2 -0 -1 -2 1 -2 1 -3 2 -2 18 5 2 -2 -2 1 -2 -0 0 3 1 -1 -0 -0 0 -1 -5
-3 -6 -2 -3 -8 -12 -10 -5 -3 -2 -2 -5 -1 -3 -3 -2 -4 0 -1 -4 -1 1 2 1 0 -1 1 13 5 6 -3 -5 0 1 1 -1 3 3 -1 -1 2 1 -1
1 -1 1 -1 -1 -3 -2 -1 -0 -7 -5 -4 -6 -4 -2 -2 -2 -2 -3 -2 -3 -2 -0 1 1 1 -2 1 8 10 5 1 0 0 3 0 0 0 4 -2 2 2 1
3 0 0 0 2 -1 2 1 -2 -1 -2 -5 -11 -10 -5 -2 -5 -4 -2 -2 -0 -3 -4 -0 2 1 1 1 1 8 3 5 -0 0 -3 2 -1 -2 4 3 -1 -1 4
-4 -1 1 1 1 2 1 -1 -2 -4 -2 -1 -0 -2 -8 -15 -3 -6 -4 -3 -5 -4 -2 -5 -1 0 2 -0 3 3 7 3 3 2 -2 1 -1 0 -0 2 -2 -2 2
-6 -10 -14 -15 -8 -7 -1 4 4 4 4 4 -1 -5 -10 -4 3 2 1 4 3 4 5 10 6 2 1 5 7 7 4 4 3 5 3 -3 1 -0 -1 1 1 -2 -2
-1 -4 -2 -4 -3 -1 -10 -11 -8 -9 -7 -2 -1 5 -3 -19 4 -0 3 2 4 5 2 4 2 3 -2 -3 2 1 7 6 4 6 8 2 -2 0 2 -0 1 -3 -1
1 2 5 3 -3 -5 -8 -4 -2 -3 -7 1 3 2 -5 -1 -15 -13 -4 2 -3 -1 7 -0 0 5 5 1 -1 3 7 18 6 4 5 4 3 2 -1 1 2 0 -2
-0 1 -0 -1 -1 -1 -6 -5 -4 3 5 -5 -6 -3 2 8 0 -16 -10 -20 -2 -4 4 1 -4 1 2 1 6 5 5 10 1 15 1 6 4 2 1 2 -1 -1 1
-1 1 4 -0 -7 -2 -1 2 1 -1 -0 6 5 2 -1 -1 -0 5 -12 -11 -13 -1 -3 -5 -1 -2 2 4 4 -2 4 7 -7 -8 8 3 5 5 3 13 6 1 1
-6 -5 -6 -3 1 1 1 1 -3 -4 -3 -5 -6 -5 -2 2 -3 -1 -0 -2 -6 -11 -5 -4 -6 0 -2 1 -1 3 4 -2 -3 7 11 5 3 5 7 -9 15 1 4
-2 -4 -3 -3 -4 -2 -1 -3 -2 -2 -2 -1 -0 -2 -1 -2 1 1 3 -6 -7 -16 -2 -5 -6 0 -2 3 -2 -1 2 5 2 5 -12 39 -1 2 3 2 4 -4 3
-1 -3 -2 -2 0 0 -4 -0 1 -0 -0 -0 -0 0 -0 0 2 1 3 7 -10 -9 -9 -0 -4 -4 6 14 -0 0 -2 1 -2 9 -8 -5 50 23 3 3 3 -1 -1
-0 -3 -3 -1 1 -3 1 1 -1 -2 1 0 -2 -1 -1 -1 1 -1 0 4 9 -1 -24 2 -3 -11 -1 6 -1 2 -7 -2 -10 14 -4 1 6 5 28 5 5 4 -4
-3 -3 -0 -1 -3 -0 0 2 -1 -2 -1 -1 -1 -0 -1 -2 1 0 -1 -2 3 4 -6 4 -1 -2 -6 -7 -8 3 2 4 -9 -4 8 11 31 1 4 -10 6 3 2
-2 0 0 -2 -1 -1 1 -0 -1 -1 -1 -2 -1 -1 -4 2 -1 -0 2 -0 -1 4 4 -23 -1 -1 -5 -10 -7 -5 -7 -2 -4 -5 -11 -18 7 2 7 17 6 -0 6
-4 -1 2 -2 -2 -1 -1 -1 -2 0 -1 -3 -1 0 -5 0 -2 -1 -0 -2 -2 -1 7 -5 -1 -4 -6 -2 -3 -5 -5 -3 -0 1 2 -10 1 3 6 13 -7 3 -0
-1 5 -1 -3 -0 -1 -3 -1 -0 -3 -3 -1 0 1 -3 3 -3 -3 -1 1 1 0 -1 6 -12 -0 -1 -5 -8 -3 -3 -4 -2 6 -3 -6 -8 -7 36 4 6 22 9
3 -1 -1 0 -0 -3 -1 -2 -1 -2 -2 -3 -2 -0 1 -0 -3 -0 -0 -2 1 2 -1 1 -7 -1 1 -5 1 -4 -11 5 -7 1 3 -6 -23 8 -12 2 -2 12 28
0 -2 -1 -0 -1 0 -1 -5 -4 -4 -2 -5 -1 3 2 3 5 -3 1 -5 -1 -2 -1 -2 -7 0 -2 -1 -3 -6 6 1 -0 -4 -9 -10 -11 -22 -2 3 -9 7 -1
-2 0 -1 -2 1 -1 -0 1 2 10 17 12 14 1 2 7 5 5 -1 4 5 -2 -4 -3 -5 -1 1 1 -3 -2 4 8 -6 3 -5 -3 -10 -13 -13 1 1 5 27
-0 -0 -1 1 -1 -1 -2 0 3 7 1 7 1 -1 -5 -0 1 -4 -5 -5 3 10 18 11 -4 -11 -3 -5 -1 -2 4 1 1 4 5 -2 2 -16 -2 -2 -10 19 -2
-2 -3 -3 -0 -1 -4 0 -3 1 4 -0 0 0 1 -0 -1 2 5 2 -3 -7 -3 -9 -10 -2 9 18 15 0 -3 -2 -2 -4 -3 -7 -18 -3 -15 -2 -1 -2 13 3
-3 -1 -1 -2 -1 -3 1 2 3 -1 3 -2 -1 -0 -1 -0 -1 5 20 8 0 -11 -2 -1 -2 -2 -3 -3 -1 6 -6 6 -9 -7 6 -0 7 -14 -12 -12 -3 3 -5
-2 -0 -3 3 1 1 2 -1 5 5 9 -4 1 -3 -2 4 8 28 16 0 -2 -9 4 1 -5 -6 4 2 2 7 2 3 -3 -10 -7 25 4 1 3 -15 1 -14 2
Height
1510 1507 1507 1507 1507 1506 1504 1504 1503 1502 1501 1503 1505 1505 1505 1506 1507 1507 1508 1511 1514 1515 1518 1520 1521 1524 1527 1528 1531 1533 1537 1540 1543 1545 1547 1549 1552 1553 1556 1558 1559 1561 1564
1508 1509 1509 1507 1504 1501 1499 1498 1498 1500 1498 1498 1500 1499 1498 1499 1500 1498 1501 1502 1504 1508 1510 1512 1516 1518 1521 1524 1525 1528 1532 1535 1536 1541 1542 1544 1547 1550 1552 1555 1556 1558 1561
1504 1505 1504 1501 1499 1497 1498 1497 1497 1495 1494 1495 1494 1493 1493 1492 1492 1492 1492 1494 1498 1500 1502 1504 1507 1510 1514 1517 1519 1522 1525 1528 1531 1534 1536 1539 1542 1545 1548 1551 1553 1554 1557
1502 1501 1500 1499 1497 1495 1494 1493 1491 1489 1489 1489 1488 1488 1487 1486 1485 1486 1486 1488 1490 1491 1494 1497 1499 1501 1504 1508 1511 1514 1517 1520 1524 1527 1529 1533 1536 1540 1543 1546 1549 1551 1554
1500 1499 1499 1497 1495 1494 1492 1489 1487 1486 1485 1483 1482 1482 1482 1480 1479 1481 1481 1481 1483 1484 1487 1488 1491 1493 1495 1499 1502 1505 1509 1512 1515 1519 1522 1526 1529 1534 1538 1541 1544 1547 1550
1499 1498 1497 1496 1494 1492 1489 1487 1485 1484 1483 1479 1476 1474 1472 1476 1476 1474 1475 1476 1476 1477 1478 1481 1482 1484 1488 1490 1493 1495 1500 1503 1507 1510 1513 1518 1522 1526 1531 1535 1538 1542 1546
1495 1493 1493 1492 1491 1489 1488 1486 1484 1483 1480 1478 1472 1470 1466 1467 1470 1465 1469 1469 1470 1469 1469 1472 1472 1471 1474 1479 1483 1487 1490 1494 1498 1501 1505 1509 1514 1518 1523 1528 1531 1536 1540
1493 1491 1490 1489 1489 1486 1484 1486 1484 1482 1480 1479 1475 1470 1462 1460 1462 1462 1463 1464 1463 1462 1464 1464 1463 1463 1463 1467 1470 1476 1482 1485 1489 1493 1497 1500 1504 1509 1514 1519 1523 1528 1533
1489 1489 1487 1485 1485 1483 1483 1484 1483 1482 1479 1478 1478 1480 1474 1466 1461 1456 1459 1457 1458 1459 1458 1456 1455 1455 1455 1457 1461 1465 1470 1473 1479 1484 1489 1492 1495 1499 1505 1510 1515 1519 1525
1487 1485 1483 1482 1482 1482 1481 1481 1481 1480 1478 1475 1476 1476 1477 1472 1468 1453 1451 1452 1452 1452 1450 1448 1449 1449 1447 1448 1452 1455 1456 1456 1460 1471 1476 1482 1485 1489 1494 1499 1505 1510 1516
1483 1482 1479 1478 1479 1479 1478 1478 1476 1474 1474 1471 1470 1468 1467 1464 1463 1462 1447 1446 1444 1446 1445 1442 1443 1442 1442 1441 1442 1443 1444 1444 1448 1454 1463 1471 1476 1479 1483 1485 1492 1499 1505
1478 1478 1476 1476 1477 1475 1474 1472 1470 1470 1469 1467 1466 1464 1462 1460 1458 1458 1451 1444 1442 1435 1437 1435 1435 1435 1435 1436 1434 1434 1434 1433 1438 1445 1452 1458 1465 1469 1472 1475 1478 1488 1495
1474 1473 1473 1473 1471 1470 1468 1467 1466 1465 1464 1462 1462 1461 1459 1457 1456 1454 1450 1443 1437 1432 1429 1427 1429 1427 1428 1429 1425 1425 1425 1425 1426 1430 1436 1445 1451 1457 1461 1466 1472 1477 1480
1469 1468 1468 1468 1466 1463 1462 1462 1460 1458 1457 1455 1454 1453 1451 1450 1449 1448 1446 1442 1433 1429 1424 1421 1422 1421 1423 1421 1417 1416 1416 1417 1418 1419 1422 1427 1432 1443 1449 1454 1462 1467 1472
1464 1464 1463 1462 1459 1458 1456 1455 1452 1450 1448 1447 1445 1444 1443 1442 1441 1440 1439 1437 1434 1424 1415 1414 1416 1416 1416 1413 1411 1412 1408 1410 1410 1409 1414 1416 1415 1419 1432 1438 1448 1455 1462
1459 1458 1456 1455 1453 1452 1449 1447 1444 1442 1441 1439 1437 1436 1434 1433 1432 1432 1431 1429 1428 1424 1411 1413 1409 1408 1408 1405 1404 1402 1402 1401 1402 1401 1403 1398 1403 1407 1416 1426 1434 1442 1449
1453 1452 1450 1448 1446 1444 1441 1439 1436 1435 1433 1431 1430 1428 1425 1425 1424 1423 1422 1421 1419 1418 1409 1402 1403 1402 1399 1399 1396 1394 1393 1392 1391 1393 1394 1387 1382 1397 1400 1411 1421 1428 1436
1448 1446 1443 1441 1439 1436 1434 1431 1429 1428 1426 1424 1422 1420 1417 1416 1414 1414 1413 1411 1409 1409 1406 1397 1394 1394 1393 1393 1389 1386 1386 1385 1382 1378 1381 1391 1384 1381 1388 1389 1401 1414 1423
1442 1439 1437 1435 1432 1429 1427 1425 1423 1420 1418 1415 1413 1411 1407 1407 1405 1404 1403 1401 1400 1399 1398 1394 1387 1388 1387 1386 1382 1379 1377 1375 1374 1370 1371 1370 1376 1376 1370 1382 1393 1397 1408
1436 1432 1431 1429 1426 1424 1421 1419 1416 1413 1410 1407 1404 1400 1397 1395 1393 1393 1392 1391 1391 1390 1390 1386 1383 1380 1380 1378 1377 1373 1370 1370 1366 1365 1362 1365 1373 1371 1367 1374 1383 1391 1394
1429 1428 1425 1422 1420 1418 1415 1412 1409 1406 1402 1398 1394 1389 1386 1384 1382 1383 1382 1381 1381 1381 1381 1378 1376 1373 1372 1372 1371 1369 1367 1365 1363 1360 1355 1357 1358 1367 1367 1366 1373 1381 1388
1424 1422 1419 1416 1413 1411 1409 1407 1405 1401 1397 1393 1386 1381 1376 1374 1374 1373 1373 1373 1372 1371 1370 1370 1368 1365 1365 1366 1366 1364 1363 1361 1358 1355 1355 1352 1355 1352 1352 1357 1360 1367 1377
1419 1416 1413 1411 1408 1405 1403 1401 1397 1394 1389 1385 1380 1375 1368 1365 1364 1362 1362 1364 1364 1363 1362 1360 1357 1356 1357 1359 1361 1358 1356 1354 1349 1351 1349 1342 1342 1345 1350 1344 1348 1351 1357
1413 1411 1408 1405 1402 1399 1397 1394 1391 1387 1382 1378 1373 1368 1363 1358 1356 1354 1352 1351 1351 1352 1353 1352 1349 1348 1348 1350 1352 1353 1351 1349 1345 1343 1341 1332 1335 1338 1338 1336 1344 1340 1340
1410 1406 1403 1400 1397 1394 1391 1388 1385 1381 1376 1371 1366 1362 1357 1352 1348 1347 1345 1342 1341 1339 1340 1341 1341 1340 1341 1343 1346 1346 1343 1344 1339 1337 1337 1336 1331 1328 1332 1333 1337 1332 1336
1406 1403 1399 1396 1393 1389 1386 1383 1380 1375 1370 1365 1360 1356 1351 1347 1343 1338 1335 1335 1334 1329 1331 1331 1331 1333 1334 1334 1335 1336 1336 1335 1334 1330 1329 1326 1319 1327 1323 1326 1326 1329 1329